Regional Weather Roundup
Issued by NWS Charleston, SC

Current Version | Previous Version | Text Only | Print | Product List | Glossary Off
Versions: 1 2 3 4 5 6 7 8 9 10 11 12 13 14 15 16 17 18 19 20 21 22 23 24 25 26 27 28 29 30 31 32 33 34 35 36 37 38 39 40 41 42 43 44 45 46 47 48 49 50

000
ASUS42 KCHS 240427
RWRCHS

REGIONAL WEATHER ROUNDUP
NATIONAL WEATHER SERVICE CHARLESTON SC
1200 AM EDT SAT JUN 24 2017

NOTE: "FAIR" INDICATES FEW OR NO CLOUDS BELOW 12,000 FEET WITH NO
SIGNIFICANT WEATHER AND/OR OBSTRUCTIONS TO VISIBILITY.

NOT ALL STATIONS ARE QUALITY CONTROLLED. USE DATA WITH CAUTION...
ESPECIALLY DEWPOINT OBSERVATIONS.

SCZ027-030-031-034>040-042>050-240500-
...SOUTHEAST SOUTH CAROLINA...

CITY           SKY/WX    TMP DP  RH WIND       PRES   REMARKS
N CHARLESTON   CLOUDY    80  74  81 SW12      30.01R
WATERFRONT PRK   N/A     81  77  88 S12       29.99R
JOHNS ISLAND   CLOUDY    82  75  78 S14G22    30.02R
PINOPOLIS        N/A     81  75  83 S6        29.93R
MONCKS CORNER  FAIR      79  73  83 SW8       30.00S
SUMMERVILLE    FAIR      79  73  83 S5        30.01S
BEAUFORT MCAS  PTCLDY    82  77  84 S8G22     30.02R HX  90
BEAUFORT ARPT  MOCLDY    81  73  78 S7        30.02S
HILTON HEAD IS CLEAR     82  75  78 S10G18    30.03S
WALTERBORO     MOCLDY    77  73  88 S7        30.01S
ALLENDALE      FAIR      79  75  89 VRB6      29.99S

...SOUTHERN MIDLANDS AND PEE DEE...

CITY           SKY/WX    TMP DP  RH WIND       PRES   REMARKS
GEORGETOWN     FAIR      79  77  94 SW12      30.01S
KINGSTREE      FAIR      77  72  83 S5        29.98S
ORANGEBURG     CLOUDY    78  74  87 S12       29.99R
BARNWELL       MOCLDY    81  77  89 S8        29.98F
AIKEN          FAIR      79  72  78 S13       29.99F
MANNING        FAIR      79  75  89 S13G22    29.98S
COLUMBIA       PTCLDY    82  74  76 SW12      29.94S
SUMTER         CLOUDY    79  74  86 S12       29.94R
FLORENCE       CLEAR     79  75  87 SW12      29.96R
MYRTLE BEACH   CLOUDY    80  74  81 SW14G20   30.00
N MYRTLE BEACH CLEAR     80  75  84 SW18      29.98R

$$

GAZ063-065-086>088-099>101-113>116-118-119-134>141-150-240500-
...SOUTHEAST GEORGIA...

CITY           SKY/WX    TMP DP  RH WIND       PRES   REMARKS
SAVANNAH ARPT  MOCLDY    80  73  79 S6        30.03R
HUNTER AAF     CLEAR     81  73  77 S3        30.00R
FORT STEWART   CLEAR     78  73  83 SW3       30.01R
STATESBORO     PTCLDY    80  80 100 S7        30.01S
SYLVANIA       PTCLDY    79  77  95 SW3       30.01F
CLAXTON        FAIR      77  75  93 CALM      30.02S

...CSRA...CENTRAL AND FAR SOUTHEAST GEORGIA...

CITY           SKY/WX    TMP DP  RH WIND       PRES   REMARKS
THOMSON        CLEAR     81  73  77 W7        30.01R
AUGUSTA-BUSH   CLEAR     84  75  74 S9        29.95F HX  92
AUGUSTA-DANIEL CLEAR     84  72  67 S16       29.97S
SWAINSBORO     FAIR      81  75  83 SW5       30.01F
VIDALIA        CLEAR     81  77  89 SW7       30.02S
EASTMAN        FAIR      81  67  63 SW6       30.03F
HAZLEHURST     FAIR      82  77  87 SW6       30.01F
ALMA           PTCLDY    80  75  84 SW5       30.03R
WAYCROSS       CLEAR     81  79  94 SW5       30.04S HX  90
JESUP          FAIR      79  72  78 S3        30.04S
BAXLEY         FAIR      81  81 100 CALM      30.03S HX  91
BRUNSWICK      CLEAR     81  77  89 S10       30.05R
SAINT SIMONS   CLEAR     82  76  81 S10G23    30.03S

$$

SCZ027-028-034-036>038-045-046-048>050-GAZ119-141-240500-
...LAKE AND SUPPLEMENTAL COASTAL OBSERVATIONS...

STATION/POSITION TIME  TEMP    WIND        PRES    WAVE   SWELL
                       AIR SEA DIR/SP/G            HT/PER HT/PER/DIR
                 (UTC) (F)     (DEG/KT/KT) (MB)    (FT/S) (FT/S/D)
WINYAH BAY       0345   80     210/ 14     1015.0S
LAKE MURRAY      0350   82     190/ 15/ 22 1012.2F
ACE BASIN NERRS  0345   81     180/  1     1017.0R
FORT PULASKI     0400   82 84  210/ 11/ 16 1017.1
SAPELO ISLAND    0400   81     190/ 13     1017.0

$$

ANZ835-935-AMZ111-154-330-350-352-354-370-450-454-472-240500-
...C-MAN AND BUOY OBSERVATIONS...

STATION/POSITION TIME  TEMP    WIND        PRES    WAVE   SWELL
                       AIR SEA DIR/SP/G            HT/PER HT/PER/DIR
                 (UTC) (F)     (DEG/KT/KT) (MB)    (FT/S) (FT/S/D)
BUOY 41004       0410   81 81  200/ 19/ 23 1016.5
BUOY 41008       0350   81 82  180/ 19/ 23 1016.5R   4/ 5   2/ 90/ 9
FOLLY BEACH CMAN 0400   82     200/ 21/ 25 1017.0R
CAPERS NEARSHORE 0408   86 83  210/ 21/ 27 1015.6R
FRIPP NEARSHORE  0408   82 83  210/ 17/ 23 1016.4R


STATION/POSITION TIME  TEMP    WIND        PRES    WAVE   SWELL
                       AIR SEA DIR/SP/G            HT/PER HT/PER/DIR
                 (UTC) (F)     (DEG/KT/KT) (MB)    (FT/S) (FT/S/D)
5E ST. MARYS GA  0400      80                N/A     3/ 5
FRYING PAN BUOY  0410   81 81  210/ 21/ 27 1016.0
BUOY 41025       0350   81 80  220/ 23/ 29 1014.0F   7/ 6   2/150/ 9
CAPE LOOKOUT NC  0400   80     220/ 13/ 21 1014.7R
BUOY 41002       0350   81 81  190/ 14/ 17 1019.1R   4/ 9   3/120/ 9
BUOY 41010       0410   83 83  160/ 14/ 16 1019.0
ST AUGUSTINE FL  0400   78 79  180/ 10/ 11 1018.2R


$$




USA.gov is the U.S. government's official web portal to all federal, state and local government web resources and services.